South Bend, IN

8:12 PM EDT on April 27, 2017 (GMT -0400)
South Bend Regional

Weather History for KSBN - April, 2014

Change the Weather History Date:

Tuesday, April 1, 2014

  Actual Average Record
Temperature  
Mean Temperature 50 °F 44 °F  
Max Temperature 58 °F 54 °F 82 °F (2010)
Min Temperature 41 °F 34 °F 12 °F (1923)
Degree Days  
Heating Degree Days 15 22  
Month to date heating degree days 15 22  
Since 1 July heating degree days 6274 5566  
Cooling Degree Days 0 0  
Month to date cooling degree days 0 0  
Year to date cooling degree days 0 1  
Moisture  
Dew Point 32 °F    
Average Humidity 53    
Maximum Humidity 66    
Minimum Humidity 39    
Precipitation  
Precipitation 0.01 in 0.10 in 1.65 in (1929)
Month to date precipitation 0.01 0.10  
Year to date precipitation 7.64 6.76  
Snow  
Snow 0.00 in 0.10 in 4.70 in (1970)
Month to date snowfall 0.1  
Since 1 July snowfall 65.3  
Snow Depth -    
Sea Level Pressure  
Sea Level Pressure 29.88 in    
Wind  
Wind Speed 17 mph (SW)    
Max Wind Speed 30 mph    
Max Gust Speed 39 mph    
Visibility 10 miles    
Events Rain    
T = Trace of Precipitation, MM = Missing Value Source: NWS Daily Summary

Daily Weather History Graph

Daily Weather History Graph

Search for Another Location

Airport or City:

Trip Planner

Search our weather history database for the weather conditions in past years. The results will help you decide how hot, cold, wet, or windy it might be!

Date:

Astronomy

Apr. 01, 2014 Rise Set
Actual Time 7:28 AM EDT 8:10 PM EDT
Civil Twilight 7:00 AM EDT 8:38 PM EDT
Nautical Twilight 6:26 AM EDT 9:12 PM EDT
Astronomical Twilight 5:52 AM EDT 9:46 PM EDT
Moon 8:28 AM EDT (4/1) 10:34 PM EDT (4/1)
Length of Visible Light 13h 38m
Length of Day
12h 42m
Waxing Crescent, 4% of the Moon is Illuminated
Apr 1
Waxing Crescent
Apr 7
First Quarter
Apr 15
Full
Apr 22
Last Quarter
Apr 29
New

Hourly Weather History & Observations

Time (EDT) Temp. Windchill Dew Point Humidity Pressure Visibility Wind Dir Wind Speed Gust Speed Precip Events Conditions
12:54 AM 57.9 °F - 33.1 °F 39% 29.83 in 10.0 mi SSE 18.4 mph 28.8 mph N/A   Overcast
1:54 AM 54.0 °F - 41.0 °F 62% 29.85 in 10.0 mi South 17.3 mph - 0.01 in Rain Light Rain
2:54 AM 53.1 °F - 42.1 °F 66% 29.82 in 10.0 mi SSE 13.8 mph 23.0 mph 0.00 in   Overcast
3:54 AM 53.1 °F - 42.1 °F 66% 29.78 in 10.0 mi SSE 13.8 mph - N/A   Overcast
4:54 AM 52.0 °F - 39.9 °F 63% 29.75 in 10.0 mi SSE 13.8 mph - N/A   Scattered Clouds
5:54 AM 52.0 °F - 39.9 °F 63% 29.74 in 10.0 mi South 9.2 mph - N/A   Overcast
6:37 AM 54.0 °F - 41.0 °F 62% 29.74 in 10.0 mi SSW 15.0 mph 21.9 mph N/A   Overcast
6:54 AM 55.0 °F - 42.1 °F 62% 29.74 in 10.0 mi SSW 17.3 mph 24.2 mph N/A   Overcast
7:54 AM 51.1 °F - 37.9 °F 61% 29.77 in 10.0 mi WSW 20.7 mph 27.6 mph N/A   Overcast
7:56 AM 51.1 °F - 37.0 °F 59% 29.77 in 10.0 mi WSW 16.1 mph 27.6 mph N/A   Overcast
8:18 AM 48.9 °F - 34.0 °F 56% 29.78 in 10.0 mi WSW 18.4 mph 26.5 mph N/A   Overcast
8:54 AM 48.0 °F - 30.0 °F 50% 29.80 in 10.0 mi WSW 15.0 mph 25.3 mph N/A   Mostly Cloudy
9:54 AM 45.0 °F 36.4 °F 27.0 °F 49% 29.83 in 10.0 mi WSW 23.0 mph 29.9 mph N/A   Partly Cloudy
10:54 AM 43.0 °F 33.8 °F 26.1 °F 51% 29.85 in 10.0 mi WSW 23.0 mph 33.4 mph N/A   Partly Cloudy
11:54 AM 42.1 °F 31.7 °F 26.1 °F 53% 29.86 in - WSW 27.6 mph 33.4 mph N/A   Unknown
12:44 PM 42.1 °F 32.3 °F 25.0 °F 51% 29.87 in - WSW 24.2 mph 31.1 mph N/A   Mostly Cloudy
12:52 PM 42.8 °F 33.5 °F 26.6 °F 53% 29.87 in - WSW 23.0 mph 27.6 mph N/A   Mostly Cloudy
12:54 PM 43.0 °F 33.5 °F 26.1 °F 51% 29.88 in - WSW 24.2 mph 31.1 mph N/A   Mostly Cloudy
1:54 PM 45.0 °F 36.9 °F 26.1 °F 48% 29.91 in 10.0 mi WSW 20.7 mph 35.7 mph N/A   Scattered Clouds
2:54 PM 46.0 °F 37.0 °F 26.1 °F 46% 29.91 in 10.0 mi WSW 27.6 mph 35.7 mph N/A   Partly Cloudy
3:54 PM 48.9 °F - 27.0 °F 43% 29.92 in 10.0 mi West 26.5 mph 35.7 mph N/A   Partly Cloudy
4:54 PM 50.0 °F - 28.9 °F 44% 29.92 in 10.0 mi WSW 25.3 mph 39.1 mph N/A   Partly Cloudy
5:54 PM 50.0 °F - 27.0 °F 41% 29.95 in 10.0 mi WSW 21.9 mph 26.5 mph N/A   Clear
6:54 PM 50.0 °F - 28.0 °F 43% 29.97 in 10.0 mi West 20.7 mph - N/A   Clear
7:54 PM 46.0 °F 40.6 °F 27.0 °F 47% 30.00 in 10.0 mi WNW 11.5 mph - N/A   Clear
8:54 PM 45.0 °F 40.1 °F 27.0 °F 49% 30.03 in 10.0 mi West 9.2 mph - N/A   Clear
9:54 PM 44.1 °F 39.5 °F 28.0 °F 53% 30.06 in 10.0 mi West 8.1 mph - N/A   Clear
10:54 PM 45.0 °F 41.2 °F 28.0 °F 52% 30.08 in 10.0 mi WSW 6.9 mph - N/A   Clear
11:54 PM 44.1 °F 42.5 °F 28.9 °F 55% 30.08 in 10.0 mi WNW 3.5 mph - N/A   Overcast